Participated 2 times
Between 1932 and 1933
Georges Lemaire, Belgium
Tour de France 2026 starts from Barcelona, Spain in

Stats and Facts from
Tour de France.

2026   2025   2024   2023  2022  2021  2020  2019   2018  2017   2016   2015  2014  2013   2012   2011  2010   2009   2008   2007   2006   2005   2004   2003   2002   2001   2000   1999   1998   1997  1996   1995   1994   1993   1992  1991   1990   1989   1988   1987   1986   1985   1984   1983  1982  1981   1980   1979  1978  1977   1976  1975  1974  1973   1972   1971   1970  1969   1968   1967   1966   1965  1964  1963   1962   1961   1960   1959   1958   1957  1956   1955   1954   1953   1952  1951  1950  1949   1948  1947  1939   1938   1937   1936   1935   1934   1933  1932   1931   1930  1929   1928   1927   1926  1925  1924  1923   1922   1921   1920   1919  1914   1913   1912   1911   1910  1909   1908   1907   1906  1905  1904   1903 

Tourstats
Sitemap

After stage 21 - 2025:
 16451 starters.
  5464 different riders.
  689 teams.
  2398 stages.
  470 restdays.
  466506.50 km.
  5925 abandoned riders.

Click map for 1910 route.
Facts from Tour de France 1910 Additional info and images from 1910.
  |   Stages.  |   Stage winners.  |   Days in jerseys.  |   Teams.  |   All riders.  |   All riders by age.  |   All riders from.  |  

  |   Rookies.  |   Withdrawls.  |   Average speed.  |   GC.  |   Polka  |   Green  |   White  |   Summits. (In tour)  |   Miscellaneous.  |  

Stage 6 on July 13th. 1910
Pick a stage:  1  2  3  4  5  6  7  8  9  10  11  12  13  14  15  

After stage 6:    François Faber  
  GrenobleNice | Dist: 345.00km. | Winner: Julien Maîtron

Podium

Average speed for all riders in stage:  22,040 km./hr.

1
 Julien Maîtron  Le Globe11h 46' 00"=29,320  km/h

2
 Charles Crupelandt  Le Globe11h 46' 00"=29,320  km/h

3
 André Blaise  Alcyon11h 46' 00"=29,320  km/h

4  Cyrille Van Hauwaert  Alcyon11h 52' 00"+  00:06:00 =29,073  km/h

5  Gustave Garrigou  Alcyon11h 52' 00"+  00:06:00 =29,073  km/h

6  Lucien Petit-Breton  Legnano11h 52' 00"+  00:06:00 =29,073  km/h

7  Ernest Paul  Individual11h 53' 00"+  00:07:00 =29,032  km/h

8  Octave Lapize  Alcyon12h 07' 00"+  00:21:00 =28,473  km/h

9  François Faber  Alcyon12h 12' 00"+  00:26:00 =28,279  km/h

10  Marcel Godivier  Alcyon12h 13' 00"+  00:27:00 =28,240  km/h

11  Charles Cruchon  Individual12h 13' 00"+  00:27:00 =28,240  km/h

12  Jules Deloffre  Le Globe12h 13' 00"+  00:27:00 =28,240  km/h

13  Jean-Baptiste Dortignacq  Legnano12h 26' 00"+  00:40:00 =27,748  km/h

14  Louis Trousselier  Alcyon12h 30' 00"+  00:44:00 =27,600  km/h

15  Aldo Bettini  Alcyon12h 32' 00"+  00:46:00 =27,527  km/h

16  Constant Menager  Legnano12h 52' 00"+  01:06:00 =26,813  km/h

17  Joseph Leblanc  Individual12h 52' 00"+  01:06:00 =26,813  km/h

18  Georges Paulmier  Le Globe12h 54' 00"+  01:08:00 =26,744  km/h

19  Frédéric Saillot  Le Globe12h 55' 00"+  01:09:00 =26,710  km/h

20  Emile Georget  Legnano13h 18' 00"+  01:32:00 =25,940  km/h

21  Henri Cornet  Le Globe13h 19' 00"+  01:33:00 =25,907  km/h

22  Augustin Ringeval  Individual13h 20' 00"+  01:34:00 =25,875  km/h

23  Pierino Albini  Legnano13h 21' 00"+  01:35:00 =25,843  km/h

24  Ernesto Azzini  Legnano13h 21' 00"+  01:35:00 =25,843  km/h

25  François  Lafourcade  Individual13h 22' 00"+  01:36:00 =25,810  km/h

26  Maurice Pardon  Individual13h 53' 00"+  02:07:00 =24,850  km/h

27  Leon Lannoy  Le Globe13h 54' 00"+  02:08:00 =24,820  km/h

28  Joseph Habierre  Individual13h 55' 00"+  02:09:00 =24,790  km/h

29  Giuseppe Azzini  Legnano14h 12' 00"+  02:26:00 =24,296  km/h

30  Robert Chopard  Individual14h 13' 00"+  02:27:00 =24,267  km/h

31  Raphael Galiero  Individual14h 14' 00"+  02:28:00 =24,239  km/h

32  Noel Combelles  Individual14h 50' 00"+  03:04:00 =23,258  km/h

33  Pierre Privat  Individual14h 55' 00"+  03:09:00 =23,128  km/h

34  Georges Fleury  Individual14h 56' 00"+  03:10:00 =23,103  km/h

35  Lucien Pothier  Individual14h 57' 00"+  03:11:00 =23,077  km/h

36  Jean Bouillet  Individual14h 58' 00"+  03:12:00 =23,051  km/h

37  Albert Cognat  Individual14h 59' 00"+  03:13:00 =23,026  km/h

38  Auguste Guyon  Individual15h 00' 00"+  03:14:00 =23,000  km/h

39  François Riou  Individual15h 01' 00"+  03:15:00 =22,974  km/h

40  Louis Pennequin  Individual15h 15' 00"+  03:29:00 =22,623  km/h

41  Lucien Leman  Individual15h 40' 00"+  03:54:00 =22,021  km/h

42  Rene Bartholet  Individual15h 41' 00"+  03:55:00 =21,998  km/h

43  Gabriel Mathonat  Individual15h 54' 00"+  04:08:00 =21,698  km/h

44  Jean Perrucca  Individual15h 55' 00"+  04:09:00 =21,675  km/h

45  Louis Jouin  Individual16h 29' 00"+  04:43:00 =20,930  km/h

46  Albert Baudet  Individual16h 38' 00"+  04:52:00 =20,741  km/h

47  Lucien Roquebert  Individual16h 39' 00"+  04:53:00 =20,721  km/h

48  Maurice Decaup  Legnano16h 52' 00"+  05:06:00 =20,455  km/h

49  Auguste Dufour  Individual16h 55' 00"+  05:09:00 =20,394  km/h

50  Camille Bière  Individual16h 56' 00"+  05:10:00 =20,374  km/h

51  Francois Picolot  Individual17h 13' 00"+  05:27:00 =20,039  km/h

52  Henri Alavoine  Individual17h 25' 00"+  05:39:00 =19,809  km/h

53  Georges Cauvry  Individual17h 26' 00"+  05:40:00 =19,790  km/h

54  Emile Godard  Individual17h 39' 00"+  05:53:00 =19,547  km/h

55  Constant Collet  Individual17h 40' 00"+  05:54:00 =19,528  km/h

56  Antony Wattelier  Individual18h 27' 00"+  06:41:00 =18,699  km/h

57  Pietro Ghislotti  Individual18h 40' 00"+  06:54:00 =18,482  km/h

58  Lauro Bordin  Legnano18h 41' 00"+  06:55:00 =18,466  km/h

59  René Chaudé  Individual18h 50' 00"+  07:04:00 =18,319  km/h

60  Charles Dumont  Individual19h 30' 00"+  07:44:00 =17,692  km/h

61  Louis Picard  Individual19h 31' 00"+  07:45:00 =17,677  km/h

62  Jean-Baptiste Camdessoucens  Individual19h 55' 00"+  08:09:00 =17,322  km/h

63  Adolphe Hélière  Individual21h 18' 00"+  09:32:00 =16,197  km/h

64  Joseph Wiringer  Individual21h 19' 00"+  09:33:00 =16,185  km/h

65  Adrien Heloin  Individual22h 09' 00"+  10:23:00 =15,576  km/h

66  Eugene Moura  Individual22h 14' 00"+  10:28:00 =15,517  km/h

67  Paul Amiot  Individual22h 54' 00"+  11:08:00 =15,066  km/h

68  Eugene Leroy  Individual22h 54' 00"+  11:08:00 =15,066  km/h

69  Henri Ory  Individual23h 10' 00"+  11:24:00 =14,892  km/h

70  Emile Besnier  Individual23h 10' 00"+  11:24:00 =14,892  km/h


Withdrawls: 2
 RiderTeamReason
12   Maurice Brocco LegnanoDid not finish
192   Alexandre Rambaudi IndividualDid not finish
Todays birthdays.

1889 • Adolphe Landon
1890 • Jules Lebreton
1904 • Julien Grujon
1909 • Erich Metze
1926 • Giovanni Rossi
1928 • Serge Blusson
1928 • Alois Vansteenkiste
1931 • André Dupré
1934 • Alfred Rüegg
1962 • Francisco Espinosa
1962 • Paul Kimmage
1963 • Federico Muñoz
1966 • Andrea Tafi
1971 • Emmanuel Magnien
1973 • Paolo Savoldelli
1985 • Mikhail Ignatyev

 

Optimized for Chrome - Edge
and Opera browsers.